Regional Weather Roundup
Issued by NWS

Home | Current Version | Previous Version | Text Only | Print | Product List | Glossary Off
Versions: 1 2 3 4 5 6 7 8 9 10 11 12 13 14 15 16 17 18 19 20 21 22 23 24 25 26 27 28 29 30 31 32 33 34 35 36 37 38 39 40 41 42 43 44 45 46 47 48 49 50

000
ASUS45 KPSR 240810
RWRAZ

ARIZONA HOURLY REGIONAL WEATHER ROUNDUP
NATIONAL WEATHER SERVICE PHOENIX AZ
100 AM MST FRI NOV 24 2017

NOTE: FAIR INDICATES FEW OR NO CLOUDS BELOW 12,000 FEET WITH NO
SIGNIFICANT WEATHER AND/OR OBSTRUCTIONS TO VISIBILITY.

AZZ001>003-036-240900-
NORTHWEST ARIZONA

CITY           SKY/WX    TMP DP  RH WIND       PRES   REMARKS
BULLHEAD CITY  CLEAR     64  34  32 CALM      29.95F
KINGMAN        CLEAR     50  28  42 SE7       30.07F
$$

AZZ004>008-015-016-018-240900-
NORTH CENTRAL ARIZONA

CITY           SKY/WX    TMP DP  RH WIND       PRES   REMARKS
GRAND CANYON   MOCLDY    27  13  55 CALM      30.26R
WILLIAMS       PTCLDY    37  18  44 S12       30.25S WCI  30
PRESCOTT       PTCLDY    47  29  49 SW3       30.17S
FLAGSTAFF      MOCLDY    29  23  78 CALM      30.26F
PAYSON           N/A     50  25  37 CALM      30.18F
PAGE           MOCLDY    48  32  53 CALM      30.13F
$$

AZZ009>014-017-240900-
NORTHEAST ARIZONA

CITY           SKY/WX    TMP DP  RH WIND       PRES   REMARKS
WINSLOW        PTCLDY    34  21  59 S6        30.18S WCI  29
SAINT JOHNS    CLEAR     37  20  50 S5        30.19F WCI  33
WINDOW ROCK    CLEAR     28  18  66 CALM      30.24F
SHOW LOW       CLEAR     36  19  51 S7        30.23F WCI  30
$$

AZZ540-542>544-546-548-240900-
GREATER PHOENIX AREA

CITY           SKY/WX    TMP DP  RH WIND       PRES   REMARKS
PHOENIX        PTCLDY    63  40  42 E6        29.93F
BUCKEYE        CLEAR     59  28  31 N6        29.94F
LUKE AFB       CLEAR     59  35  41 N3        29.92F
DEER VALLEY    CLEAR     67  32  27 NE8       29.95S
SCOTTSDALE     CLEAR     63  37  38 NE3       29.96F
MESA-GATEWAY   CLEAR     59  32  36 SE6       29.96S
$$

AZZ539-553-240900-
SOUTHWEST MARICOPA COUNTY AND PINAL COUNTY

CITY           SKY/WX    TMP DP  RH WIND       PRES   REMARKS
CASA GRANDE    NOT AVBL
$$

AZZ503-504-507>509-240900-
SOUTHEAST ARIZONA

CITY           SKY/WX    TMP DP  RH WIND       PRES   REMARKS
TUCSON         CLEAR     55  24  30 SE7       30.04F
DAVIS-MONTHAN  CLEAR     56  24  29 SE6       30.02F
NOGALES        CLEAR     49  25  39 CALM      30.09F
SIERRA VISTA   CLEAR     55  20  26 SW6       30.14F
DOUGLAS        PTCLDY    41  19  41 NE3       30.12F
SAFFORD        CLEAR     46  19  34 CALM      30.07S
$$

AZZ532-240900-
SOUTHWEST ARIZONA

CITY           SKY/WX    TMP DP  RH WIND       PRES   REMARKS
YUMA           CLEAR     66  36  32 CALM      29.89F
$$

CAZ041-043-047-048-061-525>527-560>570-240900-
SOUTHERN CALIFORNIA

CITY           SKY/WX    TMP DP  RH WIND       PRES   REMARKS
DOWNTOWN L.A.  CLEAR     64  54  69 CALM      29.91F
L.A. AIRPORT   PTCLDY    66  56  70 CALM      29.92S
SAN DIEGO      PTCLDY    66  43  43 CALM      29.94F
BURBANK        CLEAR     66  39  37 N5        29.93F
ONTARIO        PTCLDY    67  41  38 N6        29.95F
RIVERSIDE      CLEAR     64  45  49 E6        29.95F
PALM SPRINGS   CLEAR     69  37  30 NW7       29.93F
EL CENTRO NAS  CLEAR     61  33  35 NW5       29.91F
IMPERIAL       CLEAR     62  38  40 NW3       29.89F
BLYTHE         CLEAR     62  34  35 NW5       29.94R
NEEDLES        CLEAR     64  34  32 W6        29.95F
$$

NVZ020-UTZ003-240900-
SOUTHERN NEVADA-UTAH

CITY           SKY/WX    TMP DP  RH WIND       PRES   REMARKS
LAS VEGAS      PTCLDY    60  37  42 SW5       30.00F
SALT LAKE CITY CLOUDY    52  45  77 SE5       30.00F
$$

NMZ009-TXZ055-240900-
NEW MEXICO-WEST TEXAS

CITY           SKY/WX    TMP DP  RH WIND       PRES   REMARKS
ALBUQUERQUE    CLOUDY    48  30  49 CALM      30.16F
EL PASO        PTCLDY    49  27  42 CALM      30.09F
$$


........................KEY........................
SKY/WX - SKY CONDITION/WEATHER
TMP    - TEMPERATURE IN FAHRENHEIT
DP     - DEW POINT IN FAHRENHEIT
RH     - RELATIVE HUMIDITY IN PERCENT
WIND   - DIRECTION AND SPEED IN MILES PER HOUR (MPH)
VRB    - VARIABLE WIND DIRECTION
PRES   - MEAN SEA LEVEL PRESSURE IN INCHES OF MERCURY
         F - FALLING PRESSURE   R - RISING PRESSURE
         S - STEADY PRESSURE
VSB    - VISIBILITY IN MILES
HX     - HEAT INDEX IN FAHRENHEIT
WCI    - WIND CHILL INDEX IN FAHRENHEIT
TC     - TEMPERATURE IN CELSIUS WHICH IS ALSO KNOWN AS
         TEMPERATURE IN CENTIGRADE
AFB    - AIR FORCE BASE
         LUKE AFB IS LUKE AIR FORCE BASE
         DAVIS-MONTHAN IS DAVIS-MONTHAN AIR FORCE BASE
NAS    - NAVAL AIR STATION
         EL CENTRO NAS IS EL CENTRO NAVAL AIR STATION
N/A    - NOT AVAILABLE




USA.gov is the U.S. government's official web portal to all federal, state and local government web resources and services.